• In Uzbekistan
  • List of Countries
  • For 7 days
  • Water Temperature
  • Satellite Maps
  • Weather Map
  • Weather Widgets
  • user-avatar
    Login

    Hourly Weather Kaprun

    Today, 19 June, Tuesday

    Time Temperature Precipitation Wind Pressure Humidity
    00:00 +4°C° 0 mm 2 mps 601 mmHg 94%
    01:00 +4°C° 0 mm 2 mps 601 mmHg 94%
    02:00 +4°C° 0 mm 2 mps 601 mmHg 94%
    03:00 +4°C° 0 mm 2 mps 601 mmHg 94%
    04:00 +4°C° 0 mm 2 mps 601 mmHg 94%
    05:00 +5°C° 0 mm 2 mps 602 mmHg 88%
    06:00 +7°C° 0 mm 2 mps 603 mmHg 83%
    07:00 +9°C° 0 mm 2 mps 604 mmHg 78%
    08:00 +12°C° 0 mm 2 mps 605 mmHg 70%
    09:00 +13°C° 0 mm 2 mps 605 mmHg 63%
    10:00 +15°C° 0 mm 2 mps 606 mmHg 56%
    11:00 +15°C° 0 mm 2 mps 606 mmHg 55%
    12:00 +16°C° 0 mm 2 mps 606 mmHg 53%
    13:00 +17°C° 0 mm 2 mps 606 mmHg 52%
    14:00 +17°C° 0 mm 2 mps 606 mmHg 54%
    15:00 +17°C° 0 mm 2 mps 606 mmHg 55%
    16:00 +16°C° 0 mm 2 mps 606 mmHg 57%
    17:00 +15°C° 0 mm 2 mps 605 mmHg 65%
    18:00 +14°C° 0 mm 2 mps 605 mmHg 72%
    19:00 +13°C° 0 mm 2 mps 604 mmHg 80%
    20:00 +10°C° 0 mm 2 mps 604 mmHg 85%
    21:00 +9°C° 0 mm 2 mps 604 mmHg 90%
    22:00 +8°C° 0 mm 1 mps 603 mmHg 96%
    23:00 +8°C° 0 mm 1 mps 603 mmHg 95%

    Tomorrow, 20 June, Wednesday

    Time Temperature Precipitation Wind Pressure Humidity
    00:00 +7°C° 0 mm 1 mps 603 mmHg 95%
    01:00 +7°C° 0 mm 1 mps 603 mmHg 94%
    02:00 +6°C° 0 mm 1 mps 602 mmHg 94%
    03:00 +6°C° 0 mm 1 mps 602 mmHg 93%
    04:00 +6°C° 0 mm 1 mps 602 mmHg 92%
    05:00 +8°C° 0 mm 1 mps 603 mmHg 85%
    06:00 +10°C° 0 mm 1 mps 604 mmHg 79%
    07:00 +11°C° 0 mm 0 mps 604 mmHg 73%
    08:00 +14°C° 0 mm 1 mps 605 mmHg 65%
    09:00 +16°C° 0 mm 1 mps 606 mmHg 58%
    10:00 +19°C° 0 mm 1 mps 607 mmHg 50%
    11:00 +19°C° 0 mm 1 mps 607 mmHg 49%
    12:00 +20°C° 0 mm 1 mps 607 mmHg 47%
    13:00 +21°C° 0 mm 1 mps 606 mmHg 46%
    14:00 +20°C° 0.2 mm 1 mps 606 mmHg 51%
    15:00 +19°C° 0.2 mm 1 mps 605 mmHg 57%
    16:00 +19°C° 0.2 mm 1 mps 605 mmHg 62%
    17:00 +18°C° 0.6 mm 1 mps 605 mmHg 69%
    18:00 +16°C° 0.6 mm 1 mps 604 mmHg 75%
    19:00 +15°C° 0.6 mm 1 mps 604 mmHg 81%
    20:00 +13°C° 0.2 mm 1 mps 603 mmHg 86%
    21:00 +11°C° 0.2 mm 1 mps 603 mmHg 90%
    22:00 +10°C° 0.2 mm 1 mps 602 mmHg 94%
    23:00 +9°C° 0 mm 1 mps 602 mmHg 94%

    Day after tomorrow, 21 June, Thursday

    Time Temperature Precipitation Wind Pressure Humidity
    00:00 +9°C° 0 mm 1 mps 602 mmHg 94%
    01:00 +9°C° 0 mm 1 mps 601 mmHg 94%
    02:00 +8°C° 0 mm 1 mps 601 mmHg 94%
    03:00 +8°C° 0 mm 1 mps 600 mmHg 94%
    04:00 +8°C° 0 mm 1 mps 600 mmHg 94%
    05:00 +10°C° 0 mm 1 mps 601 mmHg 88%
    06:00 +12°C° 0 mm 1 mps 601 mmHg 83%
    07:00 +14°C° 0 mm 1 mps 602 mmHg 78%
    08:00 +15°C° 0 mm 1 mps 603 mmHg 70%
    09:00 +18°C° 0 mm 1 mps 603 mmHg 63%
    10:00 +20°C° 0 mm 1 mps 604 mmHg 56%
    11:00 +20°C° 1.3 mm 1 mps 603 mmHg 60%
    12:00 +20°C° 1.3 mm 1 mps 603 mmHg 64%
    13:00 +20°C° 1.3 mm 1 mps 602 mmHg 68%
    14:00 +19°C° 2.1 mm 1 mps 602 mmHg 73%
    15:00 +17°C° 2.1 mm 2 mps 601 mmHg 78%
    16:00 +16°C° 2.1 mm 2 mps 600 mmHg 82%
    17:00 +15°C° 1.8 mm 2 mps 600 mmHg 86%
    18:00 +14°C° 1.8 mm 2 mps 600 mmHg 90%
    19:00 +13°C° 1.8 mm 2 mps 599 mmHg 94%
    20:00 +12°C° 0.8 mm 2 mps 600 mmHg 95%
    21:00 +10°C° 0.8 mm 2 mps 600 mmHg 96%
    22:00 +9°C° 0.8 mm 2 mps 600 mmHg 97%
    23:00 +9°C° 0.4 mm 2 mps 599 mmHg 98%

    22 June, Friday

    Time Temperature Precipitation Wind Pressure Humidity
    00:00 +9°C° 0.4 mm 2 mps 599 mmHg 98%
    01:00 +8°C° 0.4 mm 2 mps 599 mmHg 98%
    02:00 +8°C° 0.2 mm 2 mps 599 mmHg 98%
    03:00 +7°C° 0.2 mm 2 mps 598 mmHg 98%
    04:00 +6°C° 0.2 mm 2 mps 598 mmHg 98%
    05:00 +6°C° 0.2 mm 2 mps 598 mmHg 98%
    06:00 +5°C° 0.2 mm 2 mps 598 mmHg 98%
    07:00 +5°C° 0.2 mm 2 mps 598 mmHg 97%
    08:00 +4°C° 0.1 mm 3 mps 598 mmHg 95%
    09:00 +4°C° 0.1 mm 3 mps 598 mmHg 94%
    10:00 +4°C° 0.1 mm 3 mps 598 mmHg 92%
    11:00 +5°C° 0 mm 3 mps 598 mmHg 86%
    12:00 +7°C° 0 mm 3 mps 599 mmHg 79%
    13:00 +7°C° 0 mm 3 mps 599 mmHg 73%
    14:00 +7°C° 0.1 mm 3 mps 599 mmHg 71%
    15:00 +7°C° 0.1 mm 3 mps 599 mmHg 69%
    16:00 +7°C° 0.1 mm 3 mps 599 mmHg 67%
    17:00 +5°C° 0 mm 3 mps 599 mmHg 70%
    18:00 +4°C° 0 mm 3 mps 599 mmHg 73%
    19:00 +5°C° 0 mm 2 mps 599 mmHg 75%
    20:00 +3°C° 0 mm 2 mps 599 mmHg 81%
    21:00 +2°C° 0 mm 2 mps 599 mmHg 86%
    22:00 +1°C° 0 mm 2 mps 598 mmHg 92%
    23:00 -1°C° 0 mm 2 mps 598 mmHg 91%

    23 June, Saturday

    Time Temperature Precipitation Wind Pressure Humidity
    00:00 -1°C° 0 mm 2 mps 599 mmHg 91%
    01:00 -1°C° 0 mm 2 mps 599 mmHg 91%
    02:00 -1°C° 0 mm 2 mps 598 mmHg 91%
    03:00 -1°C° 0 mm 2 mps 598 mmHg 92%
    04:00 -2°C° 0 mm 2 mps 598 mmHg 92%
    05:00 +1°C° 0 mm 2 mps 599 mmHg 86%
    06:00 +2°C° 0 mm 2 mps 599 mmHg 81%
    07:00 +3°C° 0 mm 2 mps 600 mmHg 75%
    08:00 +5°C° 0 mm 2 mps 600 mmHg 65%
    09:00 +7°C° 0 mm 2 mps 601 mmHg 55%
    10:00 +9°C° 0 mm 2 mps 602 mmHg 46%
    11:00 +10°C° 0 mm 2 mps 602 mmHg 43%
    12:00 +12°C° 0 mm 2 mps 602 mmHg 41%
    13:00 +12°C° 0 mm 3 mps 602 mmHg 38%
    14:00 +11°C° 0 mm 3 mps 602 mmHg 41%
    15:00 +11°C° 0 mm 3 mps 602 mmHg 44%
    16:00 +11°C° 0 mm 3 mps 602 mmHg 47%
    17:00 +9°C° 0 mm 3 mps 601 mmHg 57%
    18:00 +8°C° 0 mm 2 mps 601 mmHg 66%
    19:00 +6°C° 0 mm 2 mps 600 mmHg 75%
    20:00 +5°C° 0 mm 2 mps 600 mmHg 82%
    21:00 +4°C° 0 mm 1 mps 600 mmHg 89%
    22:00 +3°C° 0 mm 1 mps 600 mmHg 96%
    23:00 +2°C° 0 mm 1 mps 599 mmHg 96%

    24 June, Sunday

    Time Temperature Precipitation Wind Pressure Humidity
    00:00 +2°C° 0 mm 1 mps 599 mmHg 96%
    01:00 +2°C° 0 mm 1 mps 599 mmHg 95%
    02:00 +1°C° 0 mm 1 mps 599 mmHg 94%
    03:00 0°C° 0 mm 1 mps 598 mmHg 93%
    04:00 0°C° 0 mm 1 mps 598 mmHg 92%
    05:00 +1°C° 0 mm 0 mps 599 mmHg 83%
    06:00 +3°C° 0 mm 0 mps 600 mmHg 74%
    07:00 +5°C° 0 mm 0 mps 601 mmHg 66%
    08:00 +8°C° 0 mm 1 mps 601 mmHg 56%
    09:00 +10°C° 0 mm 1 mps 602 mmHg 47%
    10:00 +12°C° 0 mm 1 mps 603 mmHg 38%
    11:00 +13°C° 0 mm 1 mps 603 mmHg 36%
    12:00 +14°C° 0 mm 2 mps 603 mmHg 34%
    13:00 +14°C° 0 mm 2 mps 603 mmHg 33%
    14:00 +14°C° 0.1 mm 2 mps 603 mmHg 36%
    15:00 +14°C° 0.1 mm 2 mps 602 mmHg 40%
    16:00 +13°C° 0.1 mm 2 mps 602 mmHg 43%
    17:00 +12°C° 0.1 mm 2 mps 602 mmHg 52%
    18:00 +10°C° 0.1 mm 2 mps 601 mmHg 61%
    19:00 +9°C° 0.1 mm 1 mps 601 mmHg 71%
    20:00 +7°C° 0.1 mm 1 mps 600 mmHg 78%
    21:00 +5°C° 0.1 mm 1 mps 599 mmHg 86%
    22:00 +3°C° 0.1 mm 1 mps 599 mmHg 93%
    23:00 +3°C° 0 mm 1 mps 599 mmHg 93%
    Show more